GLO1396 SBGR-SBAU

Flight info

Callsign GLO1396
Flight time 0h 54m
Altitude 32000
Route EGEVA DCT IMTBI
Aircraft B738/M-SDE2E3FGHIRWXY/LB1

Departure

Time 2026-05-06 02:06
Airport São Paulo/Guarulhos–Governor André Franco Montoro International Airport (SBGR)

Arrival

Time 2026-05-06 03:00
Airport Araçatuba Airport (SBAU)
Time Latitude Longitude Altitude Speed Heading
2026-05-06 01:51 -23.42867 -46.48348 2464 ft 0 kts 85°
2026-05-06 01:58 -23.42869 -46.48369 2464 ft 3 kts 86°
2026-05-06 01:58 -23.42869 -46.48384 2464 ft 3 kts 88°
2026-05-06 01:59 -23.42870 -46.48405 2464 ft 3 kts 94°
2026-05-06 01:59 -23.42868 -46.48418 2464 ft 1 kts 117°
2026-05-06 01:59 -23.42863 -46.48426 2466 ft 1 kts 165°
2026-05-06 01:59 -23.42854 -46.48427 2465 ft 1 kts 179°
2026-05-06 02:00 -23.42849 -46.48427 2488 ft 0 kts 182°
2026-05-06 02:01 -23.42850 -46.48427 2487 ft 1 kts 182°
2026-05-06 02:01 -23.42865 -46.48427 2466 ft 4 kts 182°
2026-05-06 02:01 -23.42907 -46.48434 2456 ft 8 kts 192°
2026-05-06 02:02 -23.42963 -46.48449 2478 ft 7 kts 187°
2026-05-06 02:02 -23.43010 -46.48451 2472 ft 7 kts 178°
2026-05-06 02:02 -23.43055 -46.48441 2472 ft 7 kts 165°
2026-05-06 02:02 -23.43098 -46.48428 2476 ft 6 kts 164°
2026-05-06 02:03 -23.43141 -46.48414 2473 ft 6 kts 163°
2026-05-06 02:03 -23.43183 -46.48401 2478 ft 6 kts 163°
2026-05-06 02:03 -23.43229 -46.48386 2476 ft 7 kts 163°
2026-05-06 02:03 -23.43274 -46.48371 2478 ft 7 kts 163°
2026-05-06 02:04 -23.43326 -46.48354 2476 ft 11 kts 162°
2026-05-06 02:04 -23.43408 -46.48317 2469 ft 12 kts 133°
2026-05-06 02:04 -23.43412 -46.48280 2473 ft 4 kts 75°
2026-05-06 02:04 -23.43404 -46.48248 2477 ft 6 kts 74°
2026-05-06 02:05 -23.43396 -46.48217 2466 ft 0 kts 74°
2026-05-06 02:05 -23.43373 -46.48130 2461 ft 40 kts 73°
2026-05-06 02:05 -23.43226 -46.47588 2465 ft 108 kts 73°
2026-05-06 02:05 -23.42957 -46.46596 2468 ft 163 kts 73°
2026-05-06 02:06 -23.42614 -46.45330 2988 ft 173 kts 73°
2026-05-06 02:06 -23.42253 -46.44061 3769 ft 175 kts 73°
2026-05-06 02:06 -23.41882 -46.42772 4381 ft 188 kts 73°
2026-05-06 02:06 -23.41460 -46.41314 4661 ft 213 kts 73°
2026-05-06 02:07 -23.40986 -46.39703 4943 ft 233 kts 72°
2026-05-06 02:07 -23.40470 -46.37972 5183 ft 255 kts 73°
2026-05-06 02:07 -23.40241 -46.36017 5723 ft 266 kts 92°
2026-05-06 02:07 -23.40562 -46.34033 6557 ft 268 kts 107°
2026-05-06 02:08 -23.41200 -46.32110 7341 ft 272 kts 110°
2026-05-06 02:08 -23.41877 -46.30179 8094 ft 275 kts 110°
2026-05-06 02:08 -23.42555 -46.28207 8684 ft 278 kts 111°
2026-05-06 02:08 -23.43615 -46.26442 9100 ft 284 kts 136°
2026-05-06 02:09 -23.45298 -46.25311 9299 ft 287 kts 162°
2026-05-06 02:09 -23.47278 -46.25101 9826 ft 290 kts 185°
2026-05-06 02:09 -23.49292 -46.25462 10505 ft 297 kts 190°
2026-05-06 02:09 -23.51388 -46.25922 10756 ft 319 kts 191°
2026-05-06 02:10 -23.53602 -46.26599 10913 ft 344 kts 205°
2026-05-06 02:10 -23.55520 -46.28229 11227 ft 360 kts 231°
2026-05-06 02:10 -23.56643 -46.30674 11828 ft 365 kts 254°
2026-05-06 02:10 -23.57212 -46.33373 12552 ft 367 kts 258°
2026-05-06 02:11 -23.57712 -46.36106 13219 ft 370 kts 258°
2026-05-06 02:11 -23.58214 -46.38875 13858 ft 374 kts 258°
2026-05-06 02:11 -23.58736 -46.41668 14448 ft 377 kts 257°
2026-05-06 02:11 -23.59278 -46.44477 15021 ft 380 kts 257°
2026-05-06 02:12 -23.59835 -46.47303 15587 ft 382 kts 257°
2026-05-06 02:12 -23.60399 -46.50148 16133 ft 386 kts 257°
2026-05-06 02:12 -23.60953 -46.53009 16274 ft 387 kts 258°
2026-05-06 02:12 -23.61400 -46.55947 16559 ft 396 kts 261°
2026-05-06 02:13 -23.61808 -46.58923 17131 ft 397 kts 261°
2026-05-06 02:13 -23.62227 -46.61901 17717 ft 398 kts 260°
2026-05-06 02:13 -23.62718 -46.64884 18205 ft 401 kts 253°
2026-05-06 02:13 -23.63882 -46.67638 18652 ft 402 kts 237°
2026-05-06 02:14 -23.65431 -46.70189 19130 ft 403 kts 236°
2026-05-06 02:14 -23.66923 -46.72671 19562 ft 405 kts 236°
2026-05-06 02:14 -23.68393 -46.75405 20015 ft 408 kts 247°
2026-05-06 02:14 -23.69036 -46.78383 20432 ft 413 kts 266°
2026-05-06 02:15 -23.68787 -46.81497 20889 ft 417 kts 282°
2026-05-06 02:15 -23.67716 -46.84443 21314 ft 422 kts 300°
2026-05-06 02:15 -23.66134 -46.87034 21727 ft 425 kts 303°
2026-05-06 02:15 -23.64416 -46.89674 22106 ft 429 kts 304°
2026-05-06 02:16 -23.62673 -46.92327 22501 ft 431 kts 303°
2026-05-06 02:16 -23.60934 -46.94997 22898 ft 433 kts 303°
2026-05-06 02:16 -23.59199 -46.97694 23311 ft 436 kts 302°
2026-05-06 02:16 -23.57466 -47.00412 23704 ft 438 kts 302°
2026-05-06 02:17 -23.55732 -47.03145 24040 ft 440 kts 302°
2026-05-06 02:17 -23.53986 -47.05897 24384 ft 442 kts 302°
2026-05-06 02:17 -23.52236 -47.08653 24712 ft 443 kts 302°
2026-05-06 02:17 -23.50477 -47.11419 25029 ft 445 kts 302°
2026-05-06 02:18 -23.48703 -47.14207 25353 ft 447 kts 301°
2026-05-06 02:18 -23.46929 -47.16996 25678 ft 449 kts 301°
2026-05-06 02:18 -23.45144 -47.19800 25994 ft 451 kts 301°
2026-05-06 02:18 -23.43355 -47.22609 26320 ft 452 kts 301°
2026-05-06 02:19 -23.41559 -47.25429 26632 ft 454 kts 301°
2026-05-06 02:19 -23.39755 -47.28257 26936 ft 456 kts 301°
2026-05-06 02:19 -23.37945 -47.31094 27237 ft 458 kts 301°
2026-05-06 02:19 -23.36123 -47.33948 27540 ft 459 kts 301°
2026-05-06 02:20 -23.32466 -47.39670 28182 ft 461 kts 300°
2026-05-06 02:20 -23.30639 -47.42525 28620 ft 458 kts 300°
2026-05-06 02:20 -23.28824 -47.45362 29120 ft 456 kts 300°
2026-05-06 02:21 -23.27019 -47.48181 29590 ft 454 kts 300°
2026-05-06 02:21 -23.25218 -47.50994 30006 ft 453 kts 300°
2026-05-06 02:21 -23.23422 -47.53799 30399 ft 451 kts 300°
2026-05-06 02:21 -23.21631 -47.56595 30774 ft 449 kts 299°
2026-05-06 02:22 -23.19848 -47.59374 31167 ft 448 kts 299°
2026-05-06 02:22 -23.18273 -47.62254 31501 ft 438 kts 287°
2026-05-06 02:22 -23.17473 -47.65389 31814 ft 426 kts 272°
2026-05-06 02:22 -23.17287 -47.68579 32169 ft 422 kts 268°
2026-05-06 02:23 -23.17192 -47.71778 32163 ft 426 kts 267°
2026-05-06 02:23 -23.17033 -47.78208 32172 ft 424 kts 267°
2026-05-06 02:24 -23.16833 -47.84546 32182 ft 419 kts 268°
2026-05-06 02:24 -23.16604 -47.90883 32188 ft 420 kts 268°
2026-05-06 02:25 -23.16362 -47.97246 32188 ft 422 kts 268°
2026-05-06 02:25 -23.16118 -48.03578 32188 ft 423 kts 268°
2026-05-06 02:26 -23.15869 -48.09967 32192 ft 423 kts 268°
2026-05-06 02:26 -23.15618 -48.16361 32185 ft 423 kts 268°
2026-05-06 02:27 -23.15364 -48.22742 32185 ft 422 kts 268°
2026-05-06 02:27 -23.15109 -48.29114 32183 ft 422 kts 268°
2026-05-06 02:28 -23.14852 -48.35467 32187 ft 421 kts 268°
2026-05-06 02:28 -23.14593 -48.41809 32184 ft 420 kts 268°
2026-05-06 02:29 -23.14332 -48.48136 32192 ft 418 kts 268°
2026-05-06 02:29 -23.13779 -48.54427 32177 ft 426 kts 282°
2026-05-06 02:29 -23.12613 -48.57413 32179 ft 435 kts 295°
2026-05-06 02:30 -23.10751 -48.60044 32208 ft 443 kts 306°
2026-05-06 02:30 -23.06464 -48.64911 32188 ft 446 kts 308°
2026-05-06 02:31 -23.02116 -48.69727 32181 ft 447 kts 308°
2026-05-06 02:31 -22.97802 -48.74584 32198 ft 447 kts 308°
2026-05-06 02:32 -22.93507 -48.79468 32178 ft 448 kts 307°
2026-05-06 02:32 -22.89212 -48.84361 32170 ft 448 kts 307°
2026-05-06 02:33 -22.84906 -48.89258 32188 ft 449 kts 307°
2026-05-06 02:33 -22.83479 -48.90880 32186 ft 449 kts 307°
2026-05-06 02:34 -22.76291 -48.99034 32153 ft 440 kts 307°
2026-05-06 02:34 -22.72116 -49.03764 32161 ft 436 kts 307°
2026-05-06 02:35 -22.68061 -49.08362 31808 ft 436 kts 307°
2026-05-06 02:35 -22.65978 -49.10719 31459 ft 430 kts 307°
2026-05-06 02:35 -22.63916 -49.13051 31048 ft 427 kts 308°
2026-05-06 02:35 -22.61870 -49.15365 30651 ft 424 kts 308°
2026-05-06 02:36 -22.59840 -49.17661 30227 ft 421 kts 308°
2026-05-06 02:36 -22.57820 -49.19943 29749 ft 418 kts 308°
2026-05-06 02:36 -22.55808 -49.22197 29298 ft 415 kts 309°
2026-05-06 02:36 -22.53758 -49.24381 28853 ft 412 kts 310°
2026-05-06 02:37 -22.51694 -49.26518 28432 ft 409 kts 311°
2026-05-06 02:37 -22.49639 -49.28630 27999 ft 406 kts 311°
2026-05-06 02:37 -22.47599 -49.30727 27582 ft 403 kts 311°
2026-05-06 02:37 -22.45581 -49.32808 27159 ft 400 kts 311°
2026-05-06 02:38 -22.43575 -49.34884 26749 ft 397 kts 312°
2026-05-06 02:38 -22.41586 -49.36947 26339 ft 395 kts 312°
2026-05-06 02:38 -22.39610 -49.39000 25929 ft 393 kts 312°
2026-05-06 02:38 -22.37645 -49.41043 25521 ft 391 kts 312°
2026-05-06 02:39 -22.35688 -49.43077 25113 ft 389 kts 313°
2026-05-06 02:39 -22.33741 -49.45101 24705 ft 388 kts 313°
2026-05-06 02:39 -22.31800 -49.47119 24299 ft 387 kts 313°
2026-05-06 02:39 -22.29863 -49.49130 23886 ft 386 kts 313°
2026-05-06 02:40 -22.27928 -49.51139 23449 ft 385 kts 314°
2026-05-06 02:40 -22.26003 -49.53136 23012 ft 383 kts 314°
2026-05-06 02:40 -22.24087 -49.55122 22592 ft 381 kts 314°
2026-05-06 02:40 -22.22184 -49.57094 22191 ft 378 kts 314°
2026-05-06 02:41 -22.20293 -49.59053 21798 ft 376 kts 314°
2026-05-06 02:41 -22.19045 -49.60347 21541 ft 374 kts 314°
2026-05-06 02:41 -22.16541 -49.62939 21024 ft 371 kts 314°
2026-05-06 02:41 -22.15313 -49.64210 20774 ft 370 kts 314°
2026-05-06 02:42 -22.13458 -49.66130 20384 ft 368 kts 314°
2026-05-06 02:42 -22.11615 -49.68036 20017 ft 366 kts 314°
2026-05-06 02:42 -22.09779 -49.69934 19644 ft 365 kts 314°
2026-05-06 02:42 -22.07355 -49.72439 19142 ft 363 kts 315°
2026-05-06 02:43 -22.06123 -49.73713 18876 ft 363 kts 315°
2026-05-06 02:43 -22.04302 -49.75594 18487 ft 363 kts 315°
2026-05-06 02:43 -22.02483 -49.77471 18069 ft 361 kts 315°
2026-05-06 02:43 -22.00084 -49.79947 17541 ft 359 kts 315°
2026-05-06 02:44 -21.98870 -49.81199 17283 ft 358 kts 315°
2026-05-06 02:44 -21.97077 -49.83048 16899 ft 356 kts 315°
2026-05-06 02:44 -21.95294 -49.84886 16521 ft 354 kts 315°
2026-05-06 02:44 -21.93518 -49.86716 16152 ft 352 kts 315°
2026-05-06 02:45 -21.91750 -49.88538 15785 ft 350 kts 315°
2026-05-06 02:45 -21.90016 -49.90323 15422 ft 349 kts 315°
2026-05-06 02:45 -21.88266 -49.92124 15054 ft 347 kts 315°
2026-05-06 02:45 -21.86526 -49.93915 14689 ft 346 kts 315°
2026-05-06 02:46 -21.84787 -49.95704 14329 ft 345 kts 315°
2026-05-06 02:46 -21.83056 -49.97484 13949 ft 344 kts 316°
2026-05-06 02:46 -21.81329 -49.99259 13543 ft 343 kts 316°
2026-05-06 02:46 -21.79608 -50.01028 13157 ft 341 kts 316°
2026-05-06 02:47 -21.77897 -50.02786 12785 ft 339 kts 316°
2026-05-06 02:47 -21.76198 -50.04531 12417 ft 337 kts 317°
2026-05-06 02:47 -21.74506 -50.06270 12056 ft 335 kts 317°
2026-05-06 02:47 -21.72824 -50.07996 11700 ft 334 kts 317°
2026-05-06 02:48 -21.71148 -50.09715 11318 ft 332 kts 317°
2026-05-06 02:48 -21.69479 -50.11426 10969 ft 331 kts 318°
2026-05-06 02:48 -21.67820 -50.13126 10651 ft 329 kts 318°
2026-05-06 02:48 -21.66187 -50.14800 10500 ft 320 kts 318°
2026-05-06 02:49 -21.64592 -50.16436 10347 ft 312 kts 319°
2026-05-06 02:49 -21.63038 -50.18028 10222 ft 305 kts 319°
2026-05-06 02:49 -21.61527 -50.19575 10148 ft 295 kts 319°
2026-05-06 02:49 -21.60056 -50.21082 10124 ft 288 kts 319°
2026-05-06 02:50 -21.58631 -50.22540 10108 ft 277 kts 319°
2026-05-06 02:50 -21.57268 -50.23935 10109 ft 264 kts 319°
2026-05-06 02:50 -21.55951 -50.25283 10108 ft 260 kts 319°
2026-05-06 02:50 -21.54648 -50.26613 10118 ft 259 kts 319°
2026-05-06 02:51 -21.53336 -50.27952 10131 ft 260 kts 319°
2026-05-06 02:51 -21.52021 -50.29294 10140 ft 261 kts 319°
2026-05-06 02:51 -21.50704 -50.30638 10128 ft 262 kts 319°
2026-05-06 02:51 -21.49383 -50.31986 10133 ft 262 kts 320°
2026-05-06 02:52 -21.48937 -50.32403 10122 ft 261 kts 326°
2026-05-06 02:52 -21.48091 -50.32964 10113 ft 257 kts 340°
2026-05-06 02:52 -21.46402 -50.33422 10012 ft 249 kts
2026-05-06 02:52 -21.44688 -50.33286 9325 ft 256 kts 12°
2026-05-06 02:53 -21.42936 -50.32754 8540 ft 266 kts 28°
2026-05-06 02:53 -21.41183 -50.32102 8028 ft 270 kts
2026-05-06 02:53 -21.39315 -50.32309 7600 ft 273 kts 342°
2026-05-06 02:53 -21.37696 -50.33362 7180 ft 276 kts 317°
2026-05-06 02:54 -21.36635 -50.35065 6758 ft 277 kts 291°
2026-05-06 02:54 -21.36306 -50.37087 6318 ft 278 kts 269°
2026-05-06 02:54 -21.36510 -50.39160 5872 ft 278 kts 263°
2026-05-06 02:54 -21.36774 -50.41199 5551 ft 275 kts 263°
2026-05-06 02:55 -21.36933 -50.43251 5159 ft 278 kts 278°
2026-05-06 02:55 -21.36267 -50.45145 4924 ft 270 kts 307°
2026-05-06 02:55 -21.34995 -50.46577 4740 ft 258 kts 321°
2026-05-06 02:55 -21.33685 -50.47787 4642 ft 240 kts 322°
2026-05-06 02:56 -21.32470 -50.48910 4519 ft 222 kts 322°
2026-05-06 02:56 -21.31349 -50.49953 4389 ft 206 kts 322°
2026-05-06 02:56 -21.30241 -50.50837 4093 ft 195 kts 344°
2026-05-06 02:56 -21.28978 -50.50941 3901 ft 177 kts 17°
2026-05-06 02:57 -21.27875 -50.50424 3770 ft 174 kts 32°
2026-05-06 02:57 -21.26785 -50.49794 3606 ft 181 kts 31°
2026-05-06 02:57 -21.25674 -50.49154 3472 ft 181 kts 31°
2026-05-06 02:57 -21.24577 -50.48519 3314 ft 178 kts 31°
2026-05-06 02:58 -21.23506 -50.47897 3170 ft 172 kts 31°
2026-05-06 02:58 -21.22461 -50.47289 3067 ft 172 kts 31°
2026-05-06 02:58 -21.21411 -50.46678 2851 ft 172 kts 31°
2026-05-06 02:58 -21.20364 -50.46069 2636 ft 170 kts 31°
2026-05-06 02:59 -21.19322 -50.45463 2414 ft 169 kts 31°
2026-05-06 02:59 -21.18309 -50.44874 2178 ft 163 kts 31°
2026-05-06 02:59 -21.17349 -50.44316 2016 ft 152 kts 31°
2026-05-06 02:59 -21.16406 -50.43779 1723 ft 155 kts 29°
2026-05-06 03:00 -21.15465 -50.43230 1494 ft 152 kts 30°
2026-05-06 03:00 -21.14549 -50.42690 1348 ft 143 kts 29°
2026-05-06 03:00 -21.13863 -50.42287 1350 ft 81 kts 27°
2026-05-06 03:00 -21.13558 -50.42101 1348 ft 19 kts 37°
2026-05-06 03:01 -21.13523 -50.42093 1347 ft 3 kts 281°
2026-05-06 03:01 -21.13548 -50.42111 1351 ft 5 kts 202°
2026-05-06 03:01 -21.13586 -50.42129 1348 ft 7 kts 205°
2026-05-06 03:01 -21.13644 -50.42160 1349 ft 11 kts 209°
2026-05-06 03:02 -21.13727 -50.42210 1351 ft 16 kts 209°
2026-05-06 03:02 -21.13827 -50.42267 1350 ft 16 kts 207°
2026-05-06 03:02 -21.13890 -50.42335 1350 ft 12 kts 279°
2026-05-06 03:02 -21.13853 -50.42417 1350 ft 12 kts 298°
2026-05-06 03:03 -21.13804 -50.42486 1349 ft 12 kts 329°
2026-05-06 03:03 -21.13772 -50.42513 1349 ft 2 kts 297°
2026-05-06 03:03 -21.13766 -50.42525 1353 ft 1 kts 300°
2026-05-06 03:03 -21.13766 -50.42526 1353 ft 0 kts 300°